| time (UTC) | temp F | wind direction | speed MPH | gust MPH | rain 1hr in | rain 24hr in | rain mn in | humidity % | barometer mb |
| 20260507105718 | 49 | 31 | 0.0 | 0.0 | 0.00 | 0.00 | 0.01 | 99 | |
| 20260507105143 | 49 | 31 | 0.0 | 1.0 | 0.00 | 0.00 | 0.01 | 99 | |
| 20260507104546 | 49 | 31 | 0.0 | 0.0 | 0.00 | 0.00 | 0.01 | 99 | |
| 20260507103320 | 49 | 31 | 0.0 | 0.0 | 0.00 | 0.00 | 0.01 | 99 | |
| 20260507102729 | 49 | 30 | 0.0 | 0.0 | 0.00 | 0.00 | 0.01 | 99 | |
| 20260507101525 | 49 | 30 | 0.0 | 0.0 | 0.00 | 0.00 | 0.01 | 99 | |
| 20260507100912 | 49 | 30 | 0.0 | 0.0 | 0.00 | 0.00 | 0.01 | 99 | |
| 20260507100332 | 49 | 31 | 0.0 | 0.0 | 0.00 | 0.00 | 0.01 | 99 | |
| 20260507095740 | 49 | 32 | 1.0 | 1.0 | 0.00 | 0.00 | 0.01 | 99 | |
| 20260507095110 | 49 | 31 | 0.0 | 1.0 | 0.00 | 0.00 | 0.01 | 99 | |
| 20260507093930 | 50 | 93 | 0.0 | 2.0 | 0.00 | 0.00 | 0.01 | 99 | |
| 20260507093344 | 50 | 72 | 0.0 | 2.0 | 0.00 | 0.00 | 0.01 | 99 | |
| 20260507092744 | 50 | 36 | 2.0 | 3.0 | 0.00 | 0.00 | 0.01 | 99 | |
| 20260507092130 | 50 | 54 | 1.0 | 6.0 | 0.00 | 0.00 | 0.01 | 99 | |
| 20260507091510 | 52 | 251 | 2.0 | 2.0 | 0.00 | 0.00 | 0.01 | 99 | |
| 20260507090940 | 52 | 352 | 0.0 | 0.0 | 0.00 | 0.00 | 0.01 | 99 | |
| 20260507090318 | 52 | 352 | 0.0 | 0.0 | 0.00 | 0.00 | 0.01 | 99 | |
| 20260507085715 | 52 | 352 | 0.0 | 0.0 | 0.00 | 0.00 | 0.01 | 99 | |
| 20260507085109 | 52 | 352 | 0.0 | 0.0 | 0.00 | 0.00 | 0.01 | 99 | |
| 20260507084541 | 52 | 352 | 0.0 | 0.0 | 0.00 | 0.00 | 0.01 | 99 | |
| 20260507083925 | 52 | 352 | 0.0 | 0.0 | 0.00 | 0.00 | 0.01 | 99 | |
| 20260507083327 | 51 | 352 | 0.0 | 0.0 | 0.00 | 0.00 | 0.01 | 99 | |
| 20260507082121 | 52 | 352 | 0.0 | 0.0 | 0.00 | 0.00 | 0.01 | 99 | |
| 20260507081530 | 52 | 352 | 0.0 | 0.0 | 0.00 | 0.00 | 0.01 | 99 | |
| 20260507080917 | 52 | 352 | 0.0 | 0.0 | 0.00 | 0.00 | 0.01 | 99 | |
| 20260507080337 | 52 | 352 | 0.0 | 0.0 | 0.00 | 0.00 | 0.01 | 99 | |
| 20260507075716 | 52 | 351 | 0.0 | 0.0 | 0.00 | 0.00 | 0.01 | 99 | |
| 20260507075136 | 52 | 351 | 0.0 | 0.0 | 0.00 | 0.00 | 0.01 | 99 | |
| 20260507074541 | 52 | 351 | 0.0 | 0.0 | 0.00 | 0.00 | 0.01 | 99 | |
| 20260507073952 | 52 | 351 | 0.0 | 0.0 | 0.00 | 0.00 | 0.01 | 99 | |
| 20260507073329 | 52 | 351 | 0.0 | 0.0 | 0.00 | 0.00 | 0.00 | 99 | |
| 20260507072748 | 52 | 351 | 0.0 | 0.0 | 0.00 | 0.00 | 0.00 | 99 | |
| 20260507072116 | 52 | 351 | 0.0 | 0.0 | 0.00 | 0.00 | 0.00 | 99 | |
| 20260507071537 | 52 | 351 | 0.0 | 0.0 | 0.00 | 0.00 | 0.00 | 99 | |
| 20260507070310 | 52 | 355 | 0.0 | 0.0 | 0.00 | 0.00 | 0.00 | 99 | |
| 20260507065753 | 52 | 355 | 0.0 | 0.0 | 0.00 | 0.00 | 0.00 | 99 | |
| 20260507064514 | 52 | 355 | 0.0 | 0.0 | 0.00 | 0.00 | 0.00 | 99 | |
| 20260507063913 | 52 | 355 | 0.0 | 0.0 | 0.00 | 0.00 | 0.00 | 99 | |
| 20260507063347 | 52 | 355 | 0.0 | 0.0 | 0.00 | 0.00 | 0.00 | 99 | |
| 20260507062716 | 52 | 5 | 0.0 | 0.0 | 0.00 | 0.00 | 0.00 | 99 | |
| 20260507062130 | 52 | 347 | 0.0 | 0.0 | 0.00 | 0.00 | 0.00 | 99 | |
| 20260507061517 | 52 | 46 | 0.0 | 0.0 | 0.00 | 0.00 | 0.00 | 99 | |
| 20260507060928 | 52 | 57 | 1.0 | 1.0 | 0.00 | 0.00 | 0.00 | 99 | |
| 20260507060317 | 52 | 168 | 0.0 | 0.0 | 0.00 | 0.00 | 0.00 | 99 | |
| 20260507055734 | 52 | 168 | 0.0 | 0.0 | 0.00 | 0.00 | 0.00 | 99 | |
| 20260507055110 | 52 | 168 | 0.0 | 0.0 | 0.00 | 0.00 | 0.00 | 99 | |
| 20260507053926 | 52 | 35 | 0.0 | 0.0 | 0.00 | 0.00 | 0.00 | 99 | |
| 20260507052712 | 52 | 34 | 0.0 | 0.0 | 0.00 | 0.00 | 0.00 | 99 | |
| 20260507052148 | 52 | 35 | 0.0 | 0.0 | 0.00 | 0.00 | 0.00 | 99 | |
| 20260507051524 | 52 | 52 | 0.0 | 0.0 | 0.00 | 0.00 | 0.00 | 99 | |
| 20260507050911 | 52 | 145 | 2.0 | 2.0 | 0.00 | 0.00 | 0.00 | 99 | |
| 20260507050342 | 52 | 41 | 0.0 | 2.0 | 0.00 | 0.00 | 0.00 | 99 | |
| 20260507045750 | 54 | 21 | 0.0 | 0.0 | 0.00 | 0.00 | 0.00 | 99 | |
| 20260507045142 | 53 | 22 | 0.0 | 1.0 | 0.00 | 0.00 | 0.00 | 99 | |
| 20260507044539 | 53 | 331 | 0.0 | 0.0 | 0.00 | 0.00 | 0.00 | 99 | |
| 20260507043954 | 54 | 330 | 0.0 | 0.0 | 0.00 | 0.00 | 0.00 | 99 | |
| 20260507041541 | 54 | 35 | 1.0 | 2.0 | 0.00 | 0.00 | 0.00 | 99 | |
| 20260507040932 | 54 | 176 | 0.0 | 1.0 | 0.00 | 0.00 | 0.00 | 99 | |
| 20260507040332 | 54 | 60 | 1.0 | 2.0 | 0.00 | 0.00 | 0.00 | 99 | |
| 20260507035713 | 54 | 176 | 1.0 | 2.0 | 0.00 | 0.00 | 1.03 | 99 | |
| 20260507035145 | 54 | 8 | 0.0 | 1.0 | 0.00 | 0.00 | 1.02 | 99 | |
| 20260507034518 | 54 | 158 | 0.0 | 7.0 | 0.00 | 0.00 | 1.02 | 99 | |
| 20260507033911 | 54 | 218 | 2.0 | 4.0 | 0.00 | 0.00 | 1.02 | 99 | |
| 20260507033343 | 55 | 93 | 2.0 | 7.0 | 0.00 | 0.00 | 1.02 | 99 | |
| 20260507032121 | 55 | 170 | 0.0 | 3.0 | 0.00 | 0.00 | 1.02 | 99 | |
| 20260507030950 | 55 | 233 | 1.0 | 1.0 | 0.00 | 0.00 | 1.02 | 99 | |
| 20260507030351 | 55 | 316 | 2.0 | 2.0 | 0.00 | 0.00 | 1.02 | 99 | |
| 20260507025726 | 55 | 30 | 1.0 | 1.0 | 0.00 | 0.00 | 1.02 | 99 | |
| 20260507024540 | 56 | 33 | 0.0 | 1.0 | 0.00 | 0.00 | 1.02 | 99 | |
| 20260507023911 | 56 | 33 | 0.0 | 0.0 | 0.00 | 0.00 | 1.02 | 99 | |
| 20260507023354 | 56 | 33 | 0.0 | 0.0 | 0.00 | 0.00 | 1.02 | 99 | |
| 20260507022710 | 56 | 33 | 0.0 | 0.0 | 0.00 | 0.00 | 1.02 | 99 | |
| 20260507022117 | 56 | 33 | 0.0 | 0.0 | 0.00 | 0.00 | 1.01 | 99 | |
| 20260507021541 | 56 | 33 | 0.0 | 0.0 | 0.00 | 0.00 | 1.01 | 99 | |
| 20260507020939 | 56 | 35 | 0.0 | 1.0 | 0.00 | 0.00 | 0.99 | 99 | |
| 20260507020318 | 56 | 236 | 1.0 | 1.0 | 0.00 | 0.00 | 0.99 | 99 | |
| 20260507015728 | 56 | 308 | 1.0 | 1.0 | 0.00 | 0.00 | 0.98 | 99 | |
| 20260507015145 | 56 | 339 | 0.0 | 0.0 | 0.00 | 0.00 | 0.97 | 99 | |
| 20260507014513 | 56 | 318 | 0.0 | 0.0 | 0.00 | 0.00 | 0.96 | 99 | |
| 20260507013930 | 56 | 347 | 0.0 | 0.0 | 0.00 | 0.00 | 0.95 | 99 | |
| 20260507013354 | 56 | 336 | 0.0 | 0.0 | 0.00 | 0.00 | 0.94 | 99 | |
| 20260507012144 | 56 | 24 | 1.0 | 1.0 | 0.00 | 0.00 | 0.93 | 99 | |
| 20260507011532 | 56 | 242 | 0.0 | 2.0 | 0.00 | 0.00 | 0.93 | 99 | |
| 20260507010954 | 56 | 22 | 0.0 | 0.0 | 0.00 | 0.00 | 0.93 | 99 | |
| 20260507010329 | 56 | 23 | 0.0 | 0.0 | 0.00 | 0.00 | 0.93 | 99 | |
| 20260507005135 | 56 | 336 | 0.0 | 1.0 | 0.00 | 0.00 | 0.92 | 99 | |
| 20260507004543 | 56 | 83 | 3.0 | 4.0 | 0.00 | 0.00 | 0.92 | 99 | |
| 20260507003345 | 56 | 36 | 0.0 | 0.0 | 0.00 | 0.00 | 0.92 | 99 | |
| 20260507002729 | 56 | 30 | 0.0 | 1.0 | 0.00 | 0.00 | 0.92 | 99 | |
| 20260507001548 | 56 | 29 | 1.0 | 1.0 | 0.00 | 0.00 | 0.92 | 99 | |
| 20260507000314 | 56 | 303 | 0.0 | 2.0 | 0.00 | 0.00 | 0.92 | 99 | |
| 20260506235729 | 57 | 36 | 1.0 | 2.0 | 0.00 | 0.00 | 0.92 | 99 | |
| 20260506235133 | 57 | 37 | 0.0 | 0.0 | 0.00 | 0.00 | 0.92 | 99 | |
| 20260506234523 | 56 | 37 | 0.0 | 1.0 | 0.00 | 0.00 | 0.92 | 99 | |
| 20260506233939 | 57 | 30 | 0.0 | 1.0 | 0.00 | 0.00 | 0.91 | 99 | |
| 20260506233351 | 57 | 38 | 1.0 | 2.0 | 0.00 | 0.00 | 0.90 | 99 | |
| 20260506232743 | 57 | 36 | 2.0 | 2.0 | 0.00 | 0.00 | 0.89 | 99 | |
| 20260506232149 | 58 | 29 | 0.0 | 1.0 | 0.00 | 0.00 | 0.86 | 99 | |
| 20260506231525 | 58 | 45 | 0.0 | 1.0 | 0.00 | 0.00 | 0.83 | 99 | |
| 20260506230932 | 58 | 180 | 1.0 | 2.0 | 0.00 | 0.00 | 0.82 | 99 | |
| 20260506230329 | 58 | 138 | 0.0 | 4.0 | 0.00 | 0.00 | 0.80 | 99 | |
| 20260506225711 | 58 | 296 | 0.0 | 2.0 | 0.00 | 0.00 | 0.78 | 99 | |
| 20260506225110 | 58 | 30 | 0.0 | 1.0 | 0.00 | 0.00 | 0.78 | 99 | |
| 20260506224517 | 59 | 31 | 0.0 | 0.0 | 0.00 | 0.00 | 0.76 | 99 | |
| 20260506223932 | 58 | 31 | 0.0 | 0.0 | 0.00 | 0.00 | 0.76 | 99 | |
| 20260506223327 | 58 | 31 | 0.0 | 0.0 | 0.00 | 0.00 | 0.76 | 99 | |
| 20260506222722 | 58 | 33 | 0.0 | 1.0 | 0.00 | 0.00 | 0.76 | 99 | |
| 20260506222144 | 58 | 33 | 0.0 | 1.0 | 0.00 | 0.00 | 0.76 | 99 | |
| 20260506221515 | 58 | 45 | 0.0 | 1.0 | 0.00 | 0.00 | 0.76 | 99 | |
| 20260506220918 | 58 | 24 | 2.0 | 3.0 | 0.00 | 0.00 | 0.76 | 99 | |
| 20260506220343 | 58 | 21 | 1.0 | 1.0 | 0.00 | 0.00 | 0.76 | 99 | |
| 20260506215738 | 58 | 23 | 0.0 | 1.0 | 0.00 | 0.00 | 0.76 | 99 | |
| 20260506215142 | 58 | 29 | 1.0 | 1.0 | 0.00 | 0.00 | 0.76 | 99 | |
| 20260506214549 | 59 | 26 | 0.0 | 1.0 | 0.00 | 0.00 | 0.76 | 99 | |
| 20260506213317 | 60 | 27 | 0.0 | 2.0 | 0.00 | 0.00 | 0.75 | 99 | |
| 20260506212713 | 60 | 18 | 1.0 | 2.0 | 0.00 | 0.00 | 0.70 | 99 | |
| 20260506212127 | 60 | 65 | 1.0 | 3.0 | 0.00 | 0.00 | 0.69 | 99 | |
| 20260506210929 | 63 | 34 | 3.0 | 3.0 | 0.00 | 0.00 | 0.68 | 99 | |
| 20260506210347 | 64 | 15 | 0.0 | 0.0 | 0.00 | 0.00 | 0.67 | 99 | |
| 20260506204531 | 65 | 351 | 0.0 | 0.0 | 0.00 | 0.00 | 0.64 | 99 | |
| 20260506203311 | 65 | 312 | 0.0 | 0.0 | 0.00 | 0.00 | 0.62 | 98 | |
| 20260506202713 | 65 | 334 | 0.0 | 0.0 | 0.00 | 0.00 | 0.62 | 98 | |
| 20260506201533 | 65 | 336 | 0.0 | 0.0 | 0.00 | 0.00 | 0.62 | 98 | |
| 20260506200314 | 65 | 326 | 0.0 | 0.0 | 0.00 | 0.00 | 0.62 | 98 | |
| 20260506195752 | 66 | 326 | 0.0 | 0.0 | 0.00 | 0.00 | 0.62 | 98 | |
| 20260506194536 | 66 | 54 | 0.0 | 0.0 | 0.00 | 0.00 | 0.62 | 98 | |
| 20260506193953 | 65 | 128 | 0.0 | 0.0 | 0.00 | 0.00 | 0.62 | 97 | |
| 20260506193353 | 66 | 318 | 0.0 | 0.0 | 0.00 | 0.00 | 0.62 | 97 | |
| 20260506192743 | 65 | 309 | 0.0 | 0.0 | 0.00 | 0.00 | 0.62 | 97 | |
| 20260506192132 | 65 | 308 | 0.0 | 0.0 | 0.00 | 0.00 | 0.62 | 97 | |
| 20260506191543 | 65 | 308 | 0.0 | 1.0 | 0.00 | 0.00 | 0.62 | 97 | |
| 20260506190913 | 64 | 306 | 0.0 | 2.0 | 0.00 | 0.00 | 0.62 | 96 | |
| 20260506190340 | 65 | 310 | 0.0 | 0.0 | 0.00 | 0.00 | 0.62 | 96 | |
| 20260506185719 | 65 | 311 | 1.0 | 1.0 | 0.00 | 0.00 | 0.62 | 95 | |
| 20260506184536 | 65 | 205 | 2.0 | 3.0 | 0.00 | 0.00 | 0.62 | 95 | |
| 20260506183920 | 66 | 167 | 2.0 | 2.0 | 0.00 | 0.00 | 0.62 | 92 | |
| 20260506183330 | 66 | 257 | 0.0 | 2.0 | 0.00 | 0.00 | 0.62 | 91 | |
| 20260506182741 | 66 | 265 | 2.0 | 7.0 | 0.00 | 0.00 | 0.62 | 91 | |
| 20260506181541 | 67 | 179 | 1.0 | 3.0 | 0.00 | 0.00 | 0.62 | 90 | |
| 20260506180936 | 67 | 251 | 2.0 | 6.0 | 0.00 | 0.00 | 0.62 | 89 | |
| 20260506180354 | 68 | 207 | 2.0 | 4.0 | 0.00 | 0.00 | 0.62 | 87 | |
| 20260506175748 | 67 | 180 | 2.0 | 4.0 | 0.00 | 0.00 | 0.62 | 89 | |
| 20260506175127 | 67 | 225 | 6.0 | 10.0 | 0.00 | 0.00 | 0.62 | 89 | |
| 20260506174531 | 67 | 254 | 5.0 | 7.0 | 0.00 | 0.00 | 0.62 | 90 | |
| 20260506173943 | 67 | 244 | 4.0 | 6.0 | 0.00 | 0.00 | 0.62 | 91 | |
| 20260506173318 | 66 | 251 | 2.0 | 6.0 | 0.00 | 0.00 | 0.62 | 92 | |
| 20260506172712 | 65 | 218 | 3.0 | 4.0 | 0.00 | 0.00 | 0.62 | 94 | |
| 20260506172141 | 64 | 247 | 2.0 | 2.0 | 0.00 | 0.00 | 0.62 | 97 | |
| 20260506170953 | 63 | 305 | 0.0 | 1.0 | 0.00 | 0.00 | 0.62 | 99 | |
| 20260506170310 | 63 | 282 | 1.0 | 2.0 | 0.00 | 0.00 | 0.62 | 99 | |
| 20260506163946 | 62 | 91 | 0.0 | 0.0 | 0.00 | 0.00 | 0.62 | 99 | |
| 20260506163334 | 62 | 91 | 0.0 | 1.0 | 0.00 | 0.00 | 0.62 | 99 | |
| 20260506162749 | 62 | 91 | 0.0 | 0.0 | 0.00 | 0.00 | 0.62 | 99 | |
| 20260506162115 | 62 | 91 | 0.0 | 1.0 | 0.00 | 0.00 | 0.62 | 99 | |
| 20260506161546 | 61 | 91 | 0.0 | 1.0 | 0.00 | 0.00 | 0.61 | 99 | |
| 20260506160934 | 61 | 91 | 0.0 | 0.0 | 0.00 | 0.00 | 0.61 | 99 | |
| 20260506160351 | 61 | 91 | 0.0 | 1.0 | 0.00 | 0.00 | 0.61 | 99 | |
| 20260506155712 | 61 | 91 | 0.0 | 0.0 | 0.00 | 0.00 | 0.61 | 99 | |
| 20260506155128 | 61 | 91 | 0.0 | 0.0 | 0.00 | 0.00 | 0.60 | 99 | |
| 20260506154542 | 60 | 86 | 1.0 | 4.0 | 0.00 | 0.00 | 0.59 | 99 | |
| 20260506153930 | 60 | 246 | 0.0 | 0.0 | 0.00 | 0.00 | 0.57 | 99 | |
| 20260506153334 | 60 | 284 | 0.0 | 1.0 | 0.00 | 0.00 | 0.56 | 99 | |
| 20260506152733 | 60 | 1 | 0.0 | 1.0 | 0.00 | 0.00 | 0.54 | 99 | |
| 20260506151533 | 60 | 340 | 0.0 | 1.0 | 0.00 | 0.00 | 0.48 | 99 | |
| 20260506150933 | 60 | 358 | 0.0 | 1.0 | 0.00 | 0.00 | 0.46 | 99 | |
| 20260506150311 | 60 | 340 | 0.0 | 0.0 | 0.00 | 0.00 | 0.43 | 99 | |
| 20260506145750 | 60 | 312 | 0.0 | 1.0 | 0.00 | 0.00 | 0.41 | 99 | |
| 20260506145133 | 60 | 333 | 0.0 | 0.0 | 0.00 | 0.00 | 0.39 | 99 | |
| 20260506144538 | 60 | 2 | 0.0 | 1.0 | 0.00 | 0.00 | 0.38 | 99 | |
| 20260506143929 | 60 | 333 | 0.0 | 0.0 | 0.00 | 0.00 | 0.33 | 99 | |
| 20260506143317 | 60 | 313 | 0.0 | 1.0 | 0.00 | 0.00 | 0.31 | 99 | |
| 20260506142716 | 61 | 332 | 1.0 | 1.0 | 0.00 | 0.00 | 0.30 | 99 | |
| 20260506142117 | 61 | 334 | 0.0 | 0.0 | 0.00 | 0.00 | 0.28 | 99 | |
| 20260506141523 | 61 | 333 | 0.0 | 1.0 | 0.00 | 0.00 | 0.28 | 99 | |
| 20260506140935 | 61 | 320 | 0.0 | 1.0 | 0.00 | 0.00 | 0.28 | 99 | |
| 20260506140343 | 61 | 341 | 0.0 | 1.0 | 0.00 | 0.00 | 0.28 | 99 | |
| 20260506135734 | 60 | 1 | 0.0 | 1.0 | 0.00 | 0.00 | 0.28 | 99 | |
| 20260506135139 | 60 | 336 | 0.0 | 1.0 | 0.00 | 0.00 | 0.28 | 99 | |
| 20260506134512 | 60 | 355 | 0.0 | 0.0 | 0.00 | 0.00 | 0.28 | 99 | |
| 20260506133920 | 60 | 347 | 0.0 | 0.0 | 0.00 | 0.00 | 0.28 | 99 | |
| 20260506133350 | 60 | 357 | 0.0 | 1.0 | 0.00 | 0.00 | 0.28 | 99 | |
| 20260506132744 | 60 | 12 | 0.0 | 0.0 | 0.00 | 0.00 | 0.28 | 99 | |
| 20260506132120 | 59 | 12 | 0.0 | 0.0 | 0.00 | 0.00 | 0.28 | 99 | |
| 20260506131514 | 59 | 357 | 0.0 | 0.0 | 0.00 | 0.00 | 0.28 | 99 | |
| 20260506130920 | 59 | 1 | 0.0 | 1.0 | 0.00 | 0.00 | 0.28 | 99 | |
| 20260506125727 | 58 | 339 | 0.0 | 1.0 | 0.00 | 0.00 | 0.27 | 99 | |
| 20260506125146 | 58 | 14 | 0.0 | 0.0 | 0.00 | 0.00 | 0.26 | 99 | |
| 20260506124511 | 58 | 12 | 0.0 | 1.0 | 0.00 | 0.00 | 0.24 | 99 | |
| 20260506123932 | 58 | 11 | 0.0 | 0.0 | 0.00 | 0.00 | 0.23 | 99 | |
| 20260506123320 | 58 | 13 | 1.0 | 1.0 | 0.00 | 0.00 | 0.22 | 99 | |
| 20260506122715 | 58 | 25 | 2.0 | 2.0 | 0.00 | 0.00 | 0.21 | 99 | |
| 20260506122149 | 58 | 317 | 0.0 | 2.0 | 0.00 | 0.00 | 0.20 | 99 | |
| 20260506121518 | 58 | 14 | 1.0 | 1.0 | 0.00 | 0.00 | 0.19 | 99 | |
| 20260506120310 | 58 | 350 | 1.0 | 1.0 | 0.00 | 0.00 | 0.15 | 99 | |
| 20260506115715 | 58 | 356 | 0.0 | 0.0 | 0.00 | 0.00 | 0.15 | 99 | |
| 20260506115122 | 57 | 340 | 1.0 | 1.0 | 0.00 | 0.00 | 0.14 | 99 | |
| 20260506114533 | 57 | 3 | 0.0 | 0.0 | 0.00 | 0.00 | 0.14 | 99 | |
| 20260506113948 | 57 | 340 | 0.0 | 1.0 | 0.00 | 0.00 | 0.13 | 99 | |
| 20260506112733 | 57 | 350 | 0.0 | 0.0 | 0.00 | 0.00 | 0.12 | 99 | |
| 20260506111515 | 57 | 325 | 0.0 | 1.0 | 0.00 | 0.00 | 0.10 | 99 | |
| 20260506110913 | 57 | 342 | 0.0 | 1.0 | 0.00 | 0.00 | 0.09 | 99 |